Date String (YYYY-MM-DD hh:mm:ss) UTC,Instrument flags,absolute air pressure of the measurement (hPa),sample flow rate (lpm),inlet stack bypass flow (lpm),air temperature of the measurement (°C),ambient temperature measured by the external sensor (°C),aerosol sample conditioner tube jacket temperature (°C),OPC LED temperature (°C),internal box temperature (°C),relative humidity of the measurement (%),span deviation,mass concentration of particles derived from Lorenz-Mie calculation of OPC scattering (μg/m³),mass concentration of particles derived from Lorenz-Mie calculation of OPC scattering (μg/m³),mass concentration of particles derived from Lorenz-Mie calculation of OPC scattering (μg/m³)
DateTimeUTC,F1_M11,P_M11,Q1_M11,Q2_M11,T1_M11,T2_M11,T3_M11,T4_M11,T5_M11,U1_M11,ZSPAN_M11,X0_M11,X2_M11,X1_M11
2023-12-22 07:00:00,SystemResetWarning,0832.8,5.00,000.00,024.4,023.2,000.0,032.8,025.6,12.2,0000.0,0004.68,0002.18,0001.73
2023-12-22 07:01:00,SystemResetWarning,0832.8,4.99,000.00,024.3,023.2,000.0,032.8,025.6,12.3,0000.0,0004.65,0002.17,0001.73
2023-12-22 07:02:00,SystemResetWarning,0832.8,5.00,000.00,024.3,023.2,000.0,032.8,025.6,12.4,0000.0,0004.31,0002.15,0001.75
2023-12-22 07:03:00,SystemResetWarning,0832.8,5.02,000.00,024.3,023.2,000.0,032.8,025.6,12.4,0000.0,0004.09,0002.14,0001.77
2023-12-22 07:04:00,SystemResetWarning,0832.8,4.99,000.00,024.3,023.2,000.0,032.8,025.6,12.4,0000.0,0004.27,0002.14,0001.78
2023-12-22 07:05:00,SystemResetWarning,0832.8,5.00,000.00,024.3,023.2,000.0,032.8,025.6,12.4,0000.0,0004.18,0002.13,0001.78
2023-12-22 07:06:00,SystemResetWarning,0832.8,5.00,000.00,024.3,023.2,000.0,032.7,025.5,12.4,0000.0,0003.80,0002.13,0001.79
2023-12-22 07:07:00,SystemResetWarning,0832.8,4.99,000.00,024.3,023.1,000.0,032.7,025.5,12.4,0000.0,0003.81,0002.14,0001.81
2023-12-22 07:08:00,SystemResetWarning,0832.8,5.01,000.00,024.2,023.1,000.0,032.7,025.5,12.4,0000.0,0003.58,0002.09,0001.81
2023-12-22 07:09:00,SystemResetWarning,0832.8,5.00,000.00,024.2,023.1,000.0,032.7,025.5,12.3,0000.0,0003.69,0002.10,0001.82
2023-12-22 07:10:00,SystemResetWarning,0832.8,5.00,000.00,024.2,023.1,000.0,032.7,025.5,12.3,0000.0,0003.75,0002.10,0001.82
2023-12-22 07:11:00,SystemResetWarning,0832.8,5.00,000.00,024.2,023.1,000.0,032.7,025.5,12.3,0000.0,0004.56,0002.10,0001.82
2023-12-22 07:12:00,SystemResetWarning,0832.8,4.99,000.00,024.2,023.1,000.0,032.7,025.5,12.2,0000.0,0004.62,0002.11,0001.81
2023-12-22 07:13:00,SystemResetWarning,0832.8,4.99,000.00,024.2,023.0,000.0,032.7,025.5,12.2,0000.0,0004.66,0002.12,0001.80
2023-12-22 07:14:00,SystemResetWarning,0832.8,5.00,000.00,024.2,023.0,000.0,032.6,025.5,12.3,0000.0,0004.62,0002.09,0001.79
2023-12-22 07:15:00,SystemResetWarning,0832.7,5.00,000.00,024.2,023.0,000.0,032.6,025.5,12.3,0000.0,0004.60,0002.09,0001.79
2023-12-22 07:16:00,SystemResetWarning,0832.8,5.01,000.00,024.2,023.0,000.0,032.6,025.5,12.3,0000.0,0004.19,0002.12,0001.78
2023-12-22 07:17:00,SystemResetWarning,0832.7,5.01,000.00,024.2,023.0,000.0,032.6,025.5,12.2,0000.0,0004.29,0002.13,0001.78
2023-12-22 07:18:00,SystemResetWarning,0832.7,5.00,000.00,024.1,023.0,000.0,032.6,025.5,12.2,0000.0,0004.29,0002.11,0001.76
2023-12-22 07:19:00,SystemResetWarning,0832.7,5.00,000.00,024.1,023.0,000.0,032.6,025.5,12.2,0000.0,0005.30,0002.13,0001.75
2023-12-22 07:20:00,SystemResetWarning,0832.7,5.00,000.00,024.1,023.0,000.0,032.6,025.5,12.3,0000.0,0005.74,0002.14,0001.75
2023-12-22 07:21:00,SystemResetWarning,0832.7,5.00,000.00,024.1,023.0,000.0,032.6,025.5,12.3,0000.0,0005.84,0002.20,0001.76
2023-12-22 07:22:00,SystemResetWarning,0832.7,4.98,000.00,024.1,023.0,000.0,032.6,025.4,12.3,0000.0,0005.06,0002.21,0001.77
2023-12-22 07:23:00,SystemResetWarning,0832.7,5.00,000.00,024.1,022.9,000.0,032.5,025.4,12.4,0000.0,0005.00,0002.24,0001.79
2023-12-22 07:24:00,SystemResetWarning,0832.7,4.99,000.00,024.1,022.9,000.0,032.5,025.4,12.4,0000.0,0005.01,0002.25,0001.81
2023-12-22 07:25:00,SystemResetWarning,0832.7,5.00,000.00,024.1,022.9,000.0,032.5,025.4,12.4,0000.0,0005.03,0002.26,0001.82
2023-12-22 07:26:00,SystemResetWarning,0832.7,5.00,000.00,024.0,022.9,000.0,032.5,025.4,12.4,0000.0,0005.04,0002.32,0001.84
2023-12-22 07:27:00,SystemResetWarning,0832.7,5.00,000.00,024.0,022.9,000.0,032.5,025.3,12.4,0000.0,0004.78,0002.31,0001.85
2023-12-22 07:28:00,SystemResetWarning,0832.7,5.00,000.00,024.0,022.9,000.0,032.5,025.3,12.4,0000.0,0004.72,0002.33,0001.85
2023-12-22 07:29:00,SystemResetWarning,0832.7,5.00,000.00,024.0,022.9,000.0,032.5,025.3,12.4,0000.0,0005.09,0002.36,0001.87
2023-12-22 07:30:00,SystemResetWarning,0832.6,5.01,000.00,024.0,022.8,000.0,032.5,025.3,12.5,0000.0,0004.86,0002.42,0001.91
2023-12-22 07:31:00,SystemResetWarning,0832.6,5.00,000.00,024.0,022.8,000.0,032.5,025.2,12.5,0000.0,0005.00,0002.42,0001.93
2023-12-22 07:32:00,SystemResetWarning,0832.6,4.99,000.00,024.0,022.8,000.0,032.4,025.3,12.5,0000.0,0006.04,0002.41,0001.94
2023-12-22 07:33:00,SystemResetWarning,0832.7,5.00,000.00,024.0,022.8,000.0,032.4,025.2,12.5,0000.0,0006.01,0002.43,0001.96
2023-12-22 07:34:00,SystemResetWarning,0832.6,5.00,000.00,023.9,022.8,000.0,032.4,025.2,12.6,0000.0,0006.17,0002.49,0001.97
2023-12-22 07:35:00,SystemResetWarning,0832.6,5.00,000.00,023.9,022.8,000.0,032.4,025.2,12.6,0000.0,0006.66,0002.57,0002.00
2023-12-22 07:36:00,SystemResetWarning,0832.7,5.00,000.00,023.9,022.8,000.0,032.4,025.2,12.6,0000.0,0007.37,0002.63,0002.03
2023-12-22 07:37:00,SystemResetWarning,0832.6,5.00,000.00,023.9,022.8,000.0,032.4,025.2,12.6,0000.0,0007.47,0002.62,0002.05
2023-12-22 07:38:00,SystemResetWarning,0832.7,5.00,000.00,023.9,022.8,000.0,032.4,025.2,12.6,0000.0,0007.52,0002.63,0002.07
2023-12-22 07:39:00,SystemResetWarning,0832.7,5.01,000.00,023.9,022.7,000.0,032.4,025.1,12.6,0000.0,0007.74,0002.65,0002.09
2023-12-22 07:40:00,SystemResetWarning,0832.7,5.00,000.00,023.9,022.7,000.0,032.3,025.1,12.7,0000.0,0007.72,0002.66,0002.10
2023-12-22 07:41:00,SystemResetWarning,0832.6,5.00,000.00,023.8,022.7,000.0,032.3,025.1,12.7,0000.0,0007.25,0002.62,0002.10
2023-12-22 07:42:00,SystemResetWarning,0832.7,5.00,000.00,023.8,022.7,000.0,032.3,025.1,12.6,0000.0,0006.76,0002.59,0002.10
2023-12-22 07:43:00,SystemResetWarning,0832.6,4.99,000.00,023.8,022.7,000.0,032.3,025.1,12.7,0000.0,0005.39,0002.58,0002.09
2023-12-22 07:44:00,SystemResetWarning,0832.5,4.99,000.00,023.8,022.6,000.0,032.3,025.1,12.7,0000.0,0005.37,0002.57,0002.08
2023-12-22 07:45:00,SystemResetWarning,0832.5,5.00,000.00,023.8,022.6,000.0,032.3,025.0,12.7,0000.0,0005.75,0002.52,0002.05
2023-12-22 07:46:00,SystemResetWarning,0832.5,5.00,000.00,023.8,022.6,000.0,032.3,025.0,12.7,0000.0,0006.38,0002.42,0002.01
2023-12-22 07:47:00,SystemResetWarning,0832.6,5.00,000.00,023.8,022.6,000.0,032.3,025.0,12.7,0000.0,0005.46,0002.35,0001.95
2023-12-22 07:48:00,SystemResetWarning,0832.5,5.00,000.00,023.7,022.6,000.0,032.2,025.1,12.7,0000.0,0005.17,0002.29,0001.93
2023-12-22 07:49:00,SystemResetWarning,0832.5,5.00,000.00,023.7,022.6,000.0,032.2,025.0,12.7,0000.0,0005.11,0002.27,0001.90
2023-12-22 07:50:00,SystemResetWarning,0832.5,4.99,000.00,023.7,022.6,000.0,032.2,025.0,12.7,0000.0,0006.10,0002.26,0001.88
2023-12-22 07:51:00,SystemResetWarning,0832.5,4.99,000.00,023.7,022.6,000.0,032.2,025.0,12.8,0000.0,0006.36,0002.23,0001.85
2023-12-22 07:52:00,SystemResetWarning,0832.5,5.00,000.00,023.7,022.6,000.0,032.2,025.0,12.8,0000.0,0006.31,0002.20,0001.80
2023-12-22 07:53:00,SystemResetWarning,0832.5,5.00,000.00,023.7,022.6,000.0,032.2,025.0,12.8,0000.0,0006.35,0002.20,0001.77
2023-12-22 07:54:00,SystemResetWarning,0832.5,5.00,000.00,023.7,022.6,000.0,032.2,025.0,12.9,0000.0,0006.35,0002.18,0001.75
2023-12-22 07:55:00,SystemResetWarning,0832.5,5.00,000.00,023.7,022.6,000.0,032.2,025.0,12.8,0000.0,0006.31,0002.14,0001.72
2023-12-22 07:56:00,SystemResetWarning,0832.5,5.00,000.00,023.7,022.5,000.0,032.1,025.0,12.9,0000.0,0005.91,0002.06,0001.69
2023-12-22 07:57:00,SystemResetWarning,0832.6,5.01,000.00,023.6,022.5,000.0,032.1,024.9,12.9,0000.0,0005.02,0002.04,0001.67
2023-12-22 07:58:00,SystemResetWarning,0832.5,4.99,000.00,023.6,022.5,000.0,032.1,024.9,13.0,0000.0,0005.19,0002.02,0001.67
2023-12-22 07:59:00,SystemResetWarning,0832.5,4.99,000.00,023.6,022.5,000.0,032.1,024.9,13.0,0000.0,0005.20,0002.02,0001.65
